HB9EKO-12 Weather Reports


time (UTC)temp
C
wind
direction
speed
KPH
gust
KPH
rain 1hr
cm
rain 24hr
cm
rain mn
cm
humidity
%
barometer
mb
20260504182503 15 0 4.8 0.0 0.00 0.00 0.00 68 1014.0
20260504180958 16 0 3.2 0.0 0.00 0.00 0.00 65 1014.0
20260504173947 16 0 0.0 0.0 0.00 0.00 0.00 62 1014.0
20260504172442 17 0 4.8 0.0 0.00 0.00 0.00 61 1014.0
20260504170937 17 0 1.6 0.0 0.00 0.00 0.00 63 1014.0
20260504150855 21 0 6.4 0.0 0.00 0.00 0.00 38 1013.0
20260504140834 23 0 0.0 0.0 0.00 0.00 0.00 36 1013.0
20260504130813 22 0 0.0 0.0 0.00 0.00 0.00 34 1013.0
20260504080628 16 0 3.2 0.0 0.00 0.00 0.00 66 1016.0
20260504050525 12 0 0.0 0.0 0.00 0.00 0.00 85 1016.0
20260504045020 12 0 0.0 0.0 0.00 0.00 0.00 89 1016.0
20260504043515 11 0 0.0 0.0 0.00 0.00 0.00 88 1016.0
20260504042010 11 0 0.0 0.0 0.00 0.00 0.00 87 1016.0
20260504040505 11 0 0.0 0.0 0.00 0.00 0.00 88 1016.0
20260504034959 11 0 0.0 0.0 0.00 0.00 0.00 87 1016.0
20260504033454 11 0 0.0 0.0 0.00 0.00 0.00 85 1016.0
20260504031949 11 0 0.0 0.0 0.00 0.00 0.00 86 1016.0
20260504030444 11 0 0.0 0.0 0.00 0.00 0.00 87 1016.0
20260504024938 12 0 0.0 0.0 0.00 0.00 0.00 83 1016.0
20260504023433 12 0 0.0 0.0 0.00 0.00 0.00 82 1016.0
20260504021928 12 0 0.0 0.0 0.00 0.00 0.00 81 1016.0
20260504020423 12 0 0.0 0.0 0.00 0.00 0.00 81 1016.0
20260504014917 12 0 0.0 0.0 0.00 0.00 0.00 80 1016.0
20260504013412 12 0 0.0 0.0 0.00 0.00 0.00 82 1016.0
20260504011907 13 0 0.0 0.0 0.00 0.00 0.00 77 1016.0
20260504010402 13 0 0.0 0.0 0.00 0.00 0.00 74 1016.0
20260504004857 13 0 0.0 0.0 0.00 0.00 0.00 75 1016.0
20260504003351 13 0 0.0 0.0 0.00 0.00 0.00 73 1016.0
20260504001846 13 0 0.0 0.0 0.00 0.00 0.00 71 1016.0
20260504000341 13 0 0.0 0.0 0.00 0.00 0.00 69 1016.0
20260503234835 15 0 0.0 0.0 0.00 0.00 0.00 67 1016.0
20260503233330 15 0 0.0 0.0 0.00 0.00 0.00 65 1016.0
20260503231825 15 0 0.0 0.0 0.00 0.00 0.00 65 1017.0
20260503230320 15 0 0.0 0.0 0.00 0.00 0.00 66 1017.0
20260503224815 15 0 0.0 0.0 0.00 0.00 0.00 64 1017.0
20260503223309 16 0 0.0 0.0 0.00 0.00 0.00 58 1016.0
20260503221804 16 0 0.0 0.0 0.00 0.00 0.00 54 1016.0
20260503220259 16 0 0.0 0.0 0.00 0.00 0.00 56 1016.0
20260503214754 16 0 0.0 0.0 0.00 0.00 0.00 57 1016.0
20260503213248 16 0 0.0 0.0 0.00 0.00 0.00 58 1016.0
20260503211743 16 0 0.0 0.0 0.00 0.00 0.00 59 1016.0
20260503210238 16 0 0.0 0.0 0.00 0.00 0.00 59 1016.0
20260503204733 16 0 0.0 0.0 0.00 0.00 0.00 59 1016.0
20260503203227 16 0 0.0 0.0 0.00 0.00 0.00 61 1016.0
20260503201722 16 0 0.0 0.0 0.00 0.00 0.00 60 1016.0
20260503200217 16 0 0.0 0.0 0.00 0.00 0.00 59 1016.0
20260503194712 16 0 0.0 0.0 0.00 0.00 0.00 59 1016.0
20260503193206 16 0 0.0 0.0 0.00 0.00 0.00 59 1016.0
20260503191701 16 0 0.0 0.0 0.00 0.00 0.00 58 1016.0
20260503190156 16 0 0.0 0.0 0.00 0.00 0.00 56 1016.0
20260503184651 16 0 0.0 0.0 0.00 0.00 0.00 56 1016.0